Location: Church Tower
(37.7144°N, 119.6316°W)
Time: 20:38:30
(UTC+00:00)

Helios 1A Rocket - Pass Details

Date: 15 November 2025
Orbit: 439 x 452 km, 98.3° (Epoch: 08 December)

Event Time Altitude Azimuth Distance (km) Brightness Sun altitude
Rises 13:51:53 0° 187° (S) 2,429 6.2 -9.6°
Reaches altitude 10° 13:54:04 10° 198° (SSW) 1,560 5.1 -9.2°
Maximum altitude 13:57:02 30° 261° (W) 831 3.3 -8.6°
Drops below altitude 10° 14:00:00 10° 324° (NW) 1,564 4.7 -8.1°
Enters shadow 14:01:48 - 335° (NNW) 2,273 5.6 -7.7°
